Regional Weather Roundup
Issued by NWS Green Bay, WI

Home | Current Version | Previous Version | Graphics & Text | Print | Product List | Glossary Off
Versions: 1 2 3 4 5 6 7 8 9 10 11 12 13 14 15 16 17 18 19 20 21 22 23 24 25 26 27 28 29 30 31 32 33 34 35 36 37 38 39 40 41 42 43 44 45 46 47 48 49 50

000
ASUS43 KGRB 040610
RWRGRB

NORTH-CENTRAL AND NORTHEAST WISCONSIN REGIONAL WEATHER ROUNDUP
NATIONAL WEATHER SERVICE GREEN BAY WI
1200 AM CST WED MAR 04 2015

WIZ005-009-010>012-018-019-040700-
NORTH CENTRAL WISCONSIN

CITY           SKY/WX    TMP DP  RH WIND       PRES   REMARKS
IRONWOOD       CLOUDY    10   1  67 W15G24    29.77S WCI  -6
MANITOWISH WTR CLEAR      6  -3  65 NW13G20   29.76S WCI -10
ARBOR VITAE    CLOUDY    11   2  67 NW7       29.76R WCI   1
EAGLE RIVER    CLEAR     10  -1  63 NW13G18   29.74R WCI  -6
LAND O LAKES   CLOUDY    11   2  65 W10G22    29.74R WCI  -2
RHINELANDER      N/A     11   2  67 W14G24    29.75R WCI  -5
PHILLIPS         N/A      9  -1  64 NW10G17   29.79R WCI  -6
ANTIGO         CLEAR     13   3  64 W18       29.75R WCI  -4
TOMAHAWK       CLEAR     11   0  62 CALM      29.79R
MERRILL        CLEAR     14   1  58 NW7       29.80R WCI   3
$$

WIZ013-073-040700-
NORTHEAST WISCONSIN

CITY           SKY/WX    TMP DP  RH WIND       PRES   REMARKS
IRON MOUNTAIN  CLOUDY    19   8  62 W13       29.70R WCI   6
MARINETTE      CLEAR     21  10  63 NW7       29.75R
OCONTO         CLEAR     23  11  60 NW8       29.77R
$$

WIZ017-030-035>037-045-040700-
CENTRAL WISCONSIN

CITY           SKY/WX    TMP DP  RH WIND       PRES   REMARKS
MEDFORD        CLEAR     11   1  65 W12G18    29.80S WCI  -3
WAUSAU         CLEAR     15   4  61 W14       29.79R WCI   0
MOSINEE        CLEAR     14   5  67 W15G21    29.82R WCI  -1
MARSHFIELD     CLEAR     13   3  64 NW18G25   29.84R WCI  -4
WISC RAPIDS    CLEAR     17   5  59 NW16G24   29.87R WCI   2
STEVENS POINT  CLEAR     15   5  64 W10G18    29.83R WCI   2
WAUPACA        CLEAR     22   7  51 W12G17    29.83R
SHAWANO        CLEAR     23   9  54 W8        29.80R
CLINTONVILLE   CLEAR     23   5  46 NW17G24   29.80R WCI   9
$$

WIZ038-039-048-051-040700-
FOX VALLEY

CITY           SKY/WX    TMP DP  RH WIND       PRES   REMARKS
NWS GREEN BAY  CLEAR     22  12  65 W9        29.79R
APPLETON       CLEAR     21   9  58 W16G23    29.81R WCI   7
OSHKOSH        PTCLDY    24  12  60 NW13G22   29.82R
FOND DU LAC    MOCLDY    25  13  60 W17G23    29.82R
$$

WIZ022-050-052-040700-
EAST CENTRAL WISCONSIN

CITY           SKY/WX    TMP DP  RH WIND       PRES   REMARKS
STURGEON BAY   CLEAR     21  10  63 NW10G18   29.77R
MANITOWOC      CLEAR     25  14  63 W15G23    29.79R
SHEBOYGAN      CLOUDY    28  15  58 NW15G22   29.80R
$$

LMZ563-521-522-541>543-040700-
LAKESHORE

STATION/POSITION TIME  TEMP    WIND        PRES    VSBY  WAVE
                       AIR SEA DIR/SP/G                  HT/PER
                 (UTC) (F)     (DEG/KT/KT) (MB)    (MI)  (FT/S)
SHEBOYGAN LKSHOR 0600   29     280/ 11/ 12 1010.4R
KEWAUNEE LKSHORE 0600   26     300/  8/ 13 1007.5R
NORTHPORT PIER   0600   24     290/  9/ 15 1007.1R
SISTER BAY LKSHO 0500   23     300/ 16/ 18   N/A
CHAMBERS ISLAND  0600   22     290/  6/ 11 1007.8R
MENOMINEE LKSHOR 0600   24     290/  9     1008.3R
$$


USA.gov is the U.S. government's official web portal to all federal, state and local government web resources and services.